Home > Weather > Dayton > Past weeks

Flag for USA Past Weather in Dayton, Ohio, USA — Yesterday and Last 2 Weeks

Now
64 °F

Passing clouds.


Feels Like: 64 °F
Forecast: 59 / 80 °F
Wind: No wind

Location: Dayton / Wright-Patterson Air Force Base

Current Time: May 25, 2016 at 9:03:45 AM

Latest Report: May 25, 2016 at 7:59 AM


Visibility: 10 mi

Pressure: 30.11 "Hg

Humidity: 72%

Dew Point: 55 °F

Location of DaytonLocation

Past Weather in Dayton — Graph

°F

Dayton Temperature Yesterday

Maximum temperature yesterday: 80 °F (at 5:58 PM)
Minimum temperature yesterday: 50 °F (at 4:58 AM)
Average temperature yesterday: 67 °F

High & Low Weather Summary for the Past Weeks

 TemperatureHumidityPressure
High80 °F (May 24, 5:58 PM)100% (May 10, 6:58 AM)30.29 "Hg (May 10, 6:58 AM)
Low33 °F (May 16, 5:58 AM)28% (May 24, 4:58 PM)29.71 "Hg (May 14, 5:58 AM)
Average59 °F70%30.07 "Hg
* Reported May 10 6:58 AM — May 25 6:58 AM, Dayton, Weather by CustomWeather, © 2016

Note: Actual official high and low records may vary slightly from our data, if they occured in-between our weather recording intervals... More about our weather records

Advertising

Dayton Weather History for the Previous 24 Hours

Scroll right to see more
 ConditionsComfort  
Time TempWeatherWind HumidityBarometerVisibility
6:58 AM
Wed, May 25
61 °FClear.No wind71%30.11 "Hg10 mi
5:58 AM61 °FPassing clouds.No wind72%30.11 "Hg10 mi
4:58 AM59 °FPassing clouds.No wind76%30.10 "Hg10 mi
3:58 AM56 °FClear.No wind81%30.11 "Hg10 mi
2:58 AM59 °FClear.No wind70%30.09 "Hg10 mi
12:58 AM64 °FClear.3 mph55%30.09 "Hg10 mi
11:58 PM
Tue, May 24
64 °FClear.No wind56%30.09 "Hg10 mi
10:58 PM67 °FClear.No wind49%30.08 "Hg10 mi
9:58 PM68 °FClear.No wind51%30.08 "Hg10 mi
8:58 PM71 °FSunny.3 mph44%30.06 "Hg10 mi
7:58 PM75 °FSunny.7 mph41%30.06 "Hg10 mi
6:58 PM79 °FSunny.7 mph29%30.05 "Hg10 mi
5:58 PM80 °FSunny.6 mph30%30.05 "Hg10 mi
4:58 PM80 °FSunny.6 mph28%30.06 "Hg10 mi
3:58 PM79 °FSunny.6 mph34%30.08 "Hg10 mi
2:58 PM78 °FPassing clouds.10 mph34%30.08 "Hg10 mi
1:58 PM78 °FPassing clouds.7 mph35%30.10 "Hg10 mi
12:58 PM76 °FPassing clouds.8 mph42%30.10 "Hg10 mi
11:58 AM75 °FSunny.2 mph47%30.12 "Hg10 mi
10:58 AM72 °FSunny.7 mph53%30.12 "Hg10 mi
9:58 AM69 °FSunny.6 mph65%30.12 "Hg10 mi
Weather by CustomWeather, © 2016

See weather overviewHow to use our weather pages